Weather in Kurganovo

Russia / Sverdlovsk Oblast     56°37′59″N   60°23′13″E
temp.,
°C
wind,
m/s
gust,
m/s
humid.,
%
clouds,
%
prec.,
mm/h
press.,
hPa
HPBL,
m
25 february, thu
thu2523:00−24n51390100 0.0 1025582
02:00−27nnw4129375 0.0 1026377
05:00−29nnw399662 0.0 1028220
08:00−30nw369878 0.0 1029127
11:00−24wnw369367 0.0 1029278
14:00−19wnw368993 0.0 1028458
17:00−17wnw368896 0.0 1028601
20:00−22w339662 0.0 102867
26 february, fri
fri2623:00−24w239531 0.0 102953
02:00−25wsw22950 0.0 102819
05:00−26wsw12950 0.0 102919
08:00−26sw11940 0.0 102819
11:00−19sse12843 0.0 1027238
14:00−15se34822 0.0 1025523
17:00−16se36883 0.0 1024415
20:00−23se37986 0.0 1024163
27 february, sat
sat2723:00−26se2310022 0.0 102476
02:00−28se259816 0.0 102295
05:00−26se499727 0.0 1021254
08:00−25se51296100 0.0 1018327
11:00−23se51195100 0.0 1017392
14:00−20se61393100 0.0 1014535
17:00−19se61396100 0.5 1013634
20:00−19se51295100 0.8 1012761
28 february, sun
sun2823:00−17ese41095100 1.3 1011608
02:00−17e41095100 0.3 1009467
05:00−16ene4896100 1.0 1008401
08:00−17ene3896100 0.7 1007352
11:00−15ene3794100 1.2 1008361
14:00−13ne4692100 0.3 1008424
17:00−14ne3694100 0.6 1009402
20:00−16ne3796100 0.4 1011342
1 march, mon
mon123:00−17ne3696100 0.6 1013324
02:00−18nne369799 0.2 1014293
05:00−19nne269899 0.4 1015291
08:00−20nne2598100 0.2 1016244
11:00−18nne2292100 0.4 1016278
14:00−13ne1186100 0.1 1015360
17:00−12w1287100 0.1 1014396
20:00−16sw129594 0.0 101320